Regional Weather Roundup
Issued by NWS

Home | Current Version | Previous Version | Text Only | Print | Product List | Glossary Off
Versions: 1 2 3 4 5 6 7 8 9 10 11 12 13 14 15 16 17 18 19 20 21 22 23 24 25 26 27 28 29 30 31 32 33 34 35 36 37 38 39 40 41 42 43 44 45 46 47 48 49 50

000
ASUS43 KDTX 290301
RWRMI
MICHIGAN HOURLY REGIONAL WEATHER ROUNDUP
NATIONAL WEATHER SERVICE DETROIT/PONTIAC MI
1100 PM EDT TUE JUL 28 2015

NOTE: "FAIR" INDICATES FEW OR NO CLOUDS BELOW 12,000 FEET WITH NO
SIGNIFICANT WEATHER AND/OR OBSTRUCTION TO VISIBILITY.

MIZ047>049-052>055-059>063-066>070-074>076-081>083-290400-
SOUTHEAST LOWER MICHIGAN

CITY           SKY/WX    TMP DP  RH WIND       PRES   REMARKS
ADRIAN         PTCLDY    71  64  78 CALM      30.03R
ALMA           CLEAR     68  66  93 CALM      30.01R
ANN ARBOR      CLEAR     65  62  90 W3        30.02R
BAD AXE        CLEAR     69  65  85 CALM      30.01R
CARO           PTCLDY    70  67  90 CALM      30.00R
DETROIT CITY   CLEAR     77  62  59 S3        30.01R
DETROIT        MOCLDY    75  65  70 CALM      30.02R
FLINT          PTCLDY    77  63  61 S6        30.01R
GROSSE ILE     CLEAR     73  68  83 CALM      29.99R
HILLSDALE      CLEAR     74  66  75 SE3       30.03R
HOWELL         PTCLDY    74  63  68 CALM      30.02R

CITY           SKY/WX    TMP DP  RH WIND       PRES   REMARKS
JACKSON        CLEAR     71  64  78 CALM      30.02R
LAMBERTVILLE   CLEAR     72  66  81 CALM      30.02R
LANSING        PTCLDY    74  63  68 CALM      30.01R
LAPEER         FAIR      68  65  93 CALM      30.02R
MASON          CLEAR     66  62  85 CALM      30.02R
MONROE         CLEAR     68  66  93 CALM      30.01R
MT. CLEMENS    CLEAR     74  66  76 SE1       29.99R
PONTIAC        MOCLDY    75  63  66 CALM      30.02R
PORT HOPE        N/A     71  65  81 SW3       29.98R
PORT HURON     CLEAR     68  66  94 CALM      30.01R
TRI CITIES     CLEAR     78  68  71 E3        30.00R
MIDLAND        FAIR      70  66  85 CALM      29.99R
TROY           CLEAR     80  63  55 CALM      30.03R
SAGINAW HB     PTCLDY    75  66  73 S3        29.99R
$$
MIZ043>046-050>051-056>058-064>065-071>073-077>080-290400-
SOUTHWEST LOWER MICHIGAN

CITY           SKY/WX    TMP DP  RH WIND       PRES   REMARKS
BATTLE CREEK   PTCLDY    77  66  68 SE3       30.01R
BENTON HARBOR  PTCLDY    76  71  85 E5        29.96S
BIG RAPIDS     MOCLDY    72  63  74 CALM      30.00R
COLDWATER      PTCLDY    73  65  76 SE3       30.01R
FREMONT        FAIR      74  67  78 CALM      29.98R
HOLLAND        PTCLDY    76  69  79 SE5       29.98R
GRAND RAPIDS   MOCLDY    76  67  73 S6        29.99R
IONIA          FAIR      72  65  80 SE6       29.99S
KALAMAZOO      PTCLDY    75  66  73 CALM      30.00R
MARSHALL       PTCLDY    73  65  76 SE3       30.00S
MOUNT PLEASANT CLEAR     69  66  88 CALM      29.99R
MUSKEGON       MOCLDY    81  64  56 E3        29.97R
SOUTH HAVEN    PTCLDY    77  69  76 SE3       29.97S
$$
MIZ016>042-290400-
NORTHERN LOWER MICHIGAN

CITY           SKY/WX    TMP DP  RH WIND       PRES   REMARKS
ALPENA         CLEAR     77  62  59 S7        29.98R
BEAVER ISLAND  PTCLDY    71  64  80 CALM      29.95F
BELLAIRE       MOCLDY    73  66  78 CALM      29.96R
CADILLAC       CLEAR     68  61  77 CALM      30.01R
CHARLEVOIX     MOCLDY    75  63  65 SW3       29.98S
FRANKFORT      PTCLDY    69  62  80 CALM      29.94F
GAYLORD        MOCLDY    78  62  57 S6        30.00R
GRAYLING       MOCLDY    75  62  62 S3        30.01S
HARBOR SPRINGS CLOUDY    74  65  72 CALM      29.95S
HOUGHTON LAKE  PTCLDY    73  65  75 S6        30.01R
MANISTEE       CLEAR     68  61  77 E5        29.95F
OSCODA         CLEAR     70  62  75 CALM      29.98R
PELLSTON       CLOUDY    72  66  81 CALM      29.96R
ROGERS CITY    PTCLDY    79  67  66 S12       29.97R
TRAVERSE CITY  PTCLDY    76  65  68 CALM      29.94R
$$
MIZ007>008-015-290400-
EASTERN UPPER MICHIGAN

CITY           SKY/WX    TMP DP  RH WIND       PRES   REMARKS
KINROSS        CLOUDY    77  61  57 S3        29.95R
MACKINAC ISLAN MOCLDY    74  64  72 S7        29.94S
MUNISING         N/A     76  59  55 S7        29.88S
$$
MIZ004>006-011>014-085-290400-
CENTRAL UPPER MICHIGAN

CITY           SKY/WX    TMP DP  RH WIND       PRES   REMARKS
ESCANABA       CLEAR     72  64  78 S5        29.90S
MENOMINEE      PTCLDY    75  63  64 S7        29.89F
SAWYER-GWINN   CLEAR     72  60  65 S12       29.91S
$$
MIZ001>003-009>011-084-290400-
WESTERN UPPER MICHIGAN

CITY           SKY/WX    TMP DP  RH WIND       PRES   REMARKS
IRON MOUNTAIN  PTCLDY    71  63  75 SE3       29.90S
HOUGHTON       MOCLDY    75  65  70 S5        29.84S
COPPER HARBOR    N/A     74  62  66 SW10G17   29.81R
IRONWOOD       PTCLDY    79  70  73 S9        29.80F
$$

ABBREVIATIONS USED IN REMARKS
   TC - TEMPERATURE IN CELSIUS
  WCI - WIND CHILL INDEX
   HX - HEAT INDEX
  VSB - VISIBILITY



USA.gov is the U.S. government's official web portal to all federal, state and local government web resources and services.